Date_Time,Julian_Date,Latitude,Longitude,Instrument_Depth,Water_Temperature
(yyyy-mm-dd hh:mn:ss UTC),(JD),(+ deg. North),(+ deg. East),(m),(deg. C)
1980-04-23 16:00:00 UTC,2444353.166667,27.9058,-93.7647,0580,21.0000
1980-04-23 16:20:00 UTC,2444353.180556,27.9058,-93.7647,0580,21.0000
1980-04-23 16:40:00 UTC,2444353.194444,27.9058,-93.7647,0580,20.8000
1980-04-23 17:00:00 UTC,2444353.208333,27.9058,-93.7647,0580,20.8000
1980-04-23 17:20:00 UTC,2444353.222222,27.9058,-93.7647,0580,20.8000
1980-04-23 17:40:00 UTC,2444353.236111,27.9058,-93.7647,0580,20.8000
1980-04-23 18:00:00 UTC,2444353.250000,27.9058,-93.7647,0580,20.8000
1980-04-23 18:20:00 UTC,2444353.263889,27.9058,-93.7647,0580,20.8000
1980-04-23 18:40:00 UTC,2444353.277778,27.9058,-93.7647,0580,20.8000
1980-04-23 19:00:00 UTC,2444353.291667,27.9058,-93.7647,0580,20.8000
1980-04-23 19:20:00 UTC,2444353.305556,27.9058,-93.7647,0580,20.8000
1980-04-23 19:40:00 UTC,2444353.319444,27.9058,-93.7647,0580,20.8000
1980-04-23 20:00:00 UTC,2444353.333333,27.9058,-93.7647,0580,20.8000
1980-04-23 20:20:00 UTC,2444353.347222,27.9058,-93.7647,0580,20.8000
1980-04-23 20:40:00 UTC,2444353.361111,27.9058,-93.7647,0580,20.8000
1980-04-23 21:00:00 UTC,2444353.375000,27.9058,-93.7647,0580,20.8000
1980-04-23 21:20:00 UTC,2444353.388889,27.9058,-93.7647,0580,20.8000
1980-04-23 21:40:00 UTC,2444353.402778,27.9058,-93.7647,0580,20.8000
1980-04-23 22:00:00 UTC,2444353.416667,27.9058,-93.7647,0580,20.8000
1980-04-23 22:20:00 UTC,2444353.430556,27.9058,-93.7647,0580,20.8000
1980-04-23 22:40:00 UTC,2444353.444444,27.9058,-93.7647,0580,20.8000
1980-04-23 23:00:00 UTC,2444353.458333,27.9058,-93.7647,0580,20.8000
1980-04-23 23:20:00 UTC,2444353.472222,27.9058,-93.7647,0580,20.8000
1980-04-23 23:40:00 UTC,2444353.486111,27.9058,-93.7647,0580,20.8000
1980-04-24 00:00:00 UTC,2444353.500000,27.9058,-93.7647,0580,20.8000
1980-04-24 00:20:00 UTC,2444353.513889,27.9058,-93.7647,0580,20.8000
1980-04-24 00:40:00 UTC,2444353.527778,27.9058,-93.7647,0580,20.8000
1980-04-24 01:00:00 UTC,2444353.541667,27.9058,-93.7647,0580,20.8000
1980-04-24 01:20:00 UTC,2444353.555556,27.9058,-93.7647,0580,21.1000
1980-04-24 01:40:00 UTC,2444353.569444,27.9058,-93.7647,0580,21.1000
1980-04-24 02:00:00 UTC,2444353.583333,27.9058,-93.7647,0580,21.1000
1980-04-24 02:20:00 UTC,2444353.597222,27.9058,-93.7647,0580,21.1000
1980-04-24 02:40:00 UTC,2444353.611111,27.9058,-93.7647,0580,21.1000
1980-04-24 03:00:00 UTC,2444353.625000,27.9058,-93.7647,0580,21.1000
1980-04-24 03:20:00 UTC,2444353.638889,27.9058,-93.7647,0580,21.1000
1980-04-24 03:40:00 UTC,2444353.652778,27.9058,-93.7647,0580,21.1000
1980-04-24 04:00:00 UTC,2444353.666667,27.9058,-93.7647,0580,21.1000
1980-04-24 04:20:00 UTC,2444353.680556,27.9058,-93.7647,0580,21.1000
1980-04-24 04:40:00 UTC,2444353.694444,27.9058,-93.7647,0580,21.1000
1980-04-24 05:00:00 UTC,2444353.708333,27.9058,-93.7647,0580,21.1000
1980-04-24 05:20:00 UTC,2444353.722222,27.9058,-93.7647,0580,21.1000
1980-04-24 05:40:00 UTC,2444353.736111,27.9058,-93.7647,0580,21.1000
1980-04-24 06:00:00 UTC,2444353.750000,27.9058,-93.7647,0580,21.1000
1980-04-24 06:20:00 UTC,2444353.763889,27.9058,-93.7647,0580,21.1000
1980-04-24 06:40:00 UTC,2444353.777778,27.9058,-93.7647,0580,21.1000
1980-04-24 07:00:00 UTC,2444353.791667,27.9058,-93.7647,0580,21.0000
1980-04-24 07:20:00 UTC,2444353.805556,27.9058,-93.7647,0580,20.8000
1980-04-24 07:40:00 UTC,2444353.819444,27.9058,-93.7647,0580,20.8000
1980-04-24 08:00:00 UTC,2444353.833333,27.9058,-93.7647,0580,20.8000
1980-04-24 08:20:00 UTC,2444353.847222,27.9058,-93.7647,0580,20.8000
1980-04-24 08:40:00 UTC,2444353.861111,27.9058,-93.7647,0580,20.8000
1980-04-24 09:00:00 UTC,2444353.875000,27.9058,-93.7647,0580,20.8000
1980-04-24 09:20:00 UTC,2444353.888889,27.9058,-93.7647,0580,20.8000
1980-04-24 09:40:00 UTC,2444353.902778,27.9058,-93.7647,0580,20.5000
1980-04-24 10:00:00 UTC,2444353.916667,27.9058,-93.7647,0580,20.5000
1980-04-24 10:20:00 UTC,2444353.930556,27.9058,-93.7647,0580,20.5000
1980-04-24 10:40:00 UTC,2444353.944444,27.9058,-93.7647,0580,20.5000
1980-04-24 11:00:00 UTC,2444353.958333,27.9058,-93.7647,0580,20.6000
1980-04-24 11:20:00 UTC,2444353.972222,27.9058,-93.7647,0580,20.8000
1980-04-24 11:40:00 UTC,2444353.986111,27.9058,-93.7647,0580,20.8000
1980-04-24 12:00:00 UTC,2444354.000000,27.9058,-93.7647,0580,20.8000
1980-04-24 12:20:00 UTC,2444354.013889,27.9058,-93.7647,0580,20.8000
1980-04-24 12:40:00 UTC,2444354.027778,27.9058,-93.7647,0580,20.8000
1980-04-24 13:00:00 UTC,2444354.041667,27.9058,-93.7647,0580,21.0000
1980-04-24 13:20:00 UTC,2444354.055556,27.9058,-93.7647,0580,21.0000
1980-04-24 13:40:00 UTC,2444354.069444,27.9058,-93.7647,0580,21.1000
1980-04-24 14:00:00 UTC,2444354.083333,27.9058,-93.7647,0580,21.1000
1980-04-24 14:20:00 UTC,2444354.097222,27.9058,-93.7647,0580,21.1000
1980-04-24 14:40:00 UTC,2444354.111111,27.9058,-93.7647,0580,21.1000
1980-04-24 15:00:00 UTC,2444354.125000,27.9058,-93.7647,0580,21.1000
1980-04-24 15:20:00 UTC,2444354.138889,27.9058,-93.7647,0580,21.1000
1980-04-24 15:40:00 UTC,2444354.152778,27.9058,-93.7647,0580,21.1000
1980-04-24 16:00:00 UTC,2444354.166667,27.9058,-93.7647,0580,21.0000
1980-04-24 16:20:00 UTC,2444354.180556,27.9058,-93.7647,0580,21.0000
1980-04-24 16:40:00 UTC,2444354.194444,27.9058,-93.7647,0580,21.0000
1980-04-24 17:00:00 UTC,2444354.208333,27.9058,-93.7647,0580,21.0000
1980-04-24 17:20:00 UTC,2444354.222222,27.9058,-93.7647,0580,21.0000
1980-04-24 17:40:00 UTC,2444354.236111,27.9058,-93.7647,0580,21.0000
1980-04-24 18:00:00 UTC,2444354.250000,27.9058,-93.7647,0580,21.1000
1980-04-24 18:20:00 UTC,2444354.263889,27.9058,-93.7647,0580,21.1000
1980-04-24 18:40:00 UTC,2444354.277778,27.9058,-93.7647,0580,21.1000
1980-04-24 19:00:00 UTC,2444354.291667,27.9058,-93.7647,0580,21.1000
1980-04-24 19:20:00 UTC,2444354.305556,27.9058,-93.7647,0580,21.1000
1980-04-24 19:40:00 UTC,2444354.319444,27.9058,-93.7647,0580,21.1000
1980-04-24 20:00:00 UTC,2444354.333333,27.9058,-93.7647,0580,21.1000
1980-04-24 20:20:00 UTC,2444354.347222,27.9058,-93.7647,0580,21.1000
1980-04-24 20:40:00 UTC,2444354.361111,27.9058,-93.7647,0580,21.1000
1980-04-24 21:00:00 UTC,2444354.375000,27.9058,-93.7647,0580,21.1000
1980-04-24 21:20:00 UTC,2444354.388889,27.9058,-93.7647,0580,21.1000
1980-04-24 21:40:00 UTC,2444354.402778,27.9058,-93.7647,0580,21.1000
1980-04-24 22:00:00 UTC,2444354.416667,27.9058,-93.7647,0580,21.1000
1980-04-24 22:20:00 UTC,2444354.430556,27.9058,-93.7647,0580,21.1000
1980-04-24 22:40:00 UTC,2444354.444444,27.9058,-93.7647,0580,21.1000
1980-04-24 23:00:00 UTC,2444354.458333,27.9058,-93.7647,0580,21.1000
1980-04-24 23:20:00 UTC,2444354.472222,27.9058,-93.7647,0580,21.1000
1980-04-24 23:40:00 UTC,2444354.486111,27.9058,-93.7647,0580,21.1000
1980-04-25 00:00:00 UTC,2444354.500000,27.9058,-93.7647,0580,21.1000
1980-04-25 00:20:00 UTC,2444354.513889,27.9058,-93.7647,0580,21.1000
1980-04-25 00:40:00 UTC,2444354.527778,27.9058,-93.7647,0580,21.1000
1980-04-25 01:00:00 UTC,2444354.541667,27.9058,-93.7647,0580,21.1000
1980-04-25 01:20:00 UTC,2444354.555556,27.9058,-93.7647,0580,21.1000
1980-04-25 01:40:00 UTC,2444354.569444,27.9058,-93.7647,0580,21.1000
1980-04-25 02:00:00 UTC,2444354.583333,27.9058,-93.7647,0580,21.1000
1980-04-25 02:20:00 UTC,2444354.597222,27.9058,-93.7647,0580,21.1000
1980-04-25 02:40:00 UTC,2444354.611111,27.9058,-93.7647,0580,21.1000
1980-04-25 03:00:00 UTC,2444354.625000,27.9058,-93.7647,0580,21.1000
1980-04-25 03:20:00 UTC,2444354.638889,27.9058,-93.7647,0580,21.1000
1980-04-25 03:40:00 UTC,2444354.652778,27.9058,-93.7647,0580,21.1000
1980-04-25 04:00:00 UTC,2444354.666667,27.9058,-93.7647,0580,21.1000
1980-04-25 04:20:00 UTC,2444354.680556,27.9058,-93.7647,0580,21.1000
1980-04-25 04:40:00 UTC,2444354.694444,27.9058,-93.7647,0580,21.1000
1980-04-25 05:00:00 UTC,2444354.708333,27.9058,-93.7647,0580,21.1000
1980-04-25 05:20:00 UTC,2444354.722222,27.9058,-93.7647,0580,21.1000
1980-04-25 05:40:00 UTC,2444354.736111,27.9058,-93.7647,0580,21.1000
1980-04-25 06:00:00 UTC,2444354.750000,27.9058,-93.7647,0580,21.1000
1980-04-25 06:20:00 UTC,2444354.763889,27.9058,-93.7647,0580,21.0000
1980-04-25 06:40:00 UTC,2444354.777778,27.9058,-93.7647,0580,21.1000
1980-04-25 07:00:00 UTC,2444354.791667,27.9058,-93.7647,0580,21.1000
1980-04-25 07:20:00 UTC,2444354.805556,27.9058,-93.7647,0580,21.1000
1980-04-25 07:40:00 UTC,2444354.819444,27.9058,-93.7647,0580,21.1000
1980-04-25 08:00:00 UTC,2444354.833333,27.9058,-93.7647,0580,21.1000
1980-04-25 08:20:00 UTC,2444354.847222,27.9058,-93.7647,0580,21.1000
1980-04-25 08:40:00 UTC,2444354.861111,27.9058,-93.7647,0580,21.1000
1980-04-25 09:00:00 UTC,2444354.875000,27.9058,-93.7647,0580,21.1000
1980-04-25 09:20:00 UTC,2444354.888889,27.9058,-93.7647,0580,21.1000
1980-04-25 09:40:00 UTC,2444354.902778,27.9058,-93.7647,0580,21.1000
1980-04-25 10:00:00 UTC,2444354.916667,27.9058,-93.7647,0580,21.1000
1980-04-25 10:20:00 UTC,2444354.930556,27.9058,-93.7647,0580,21.0000
1980-04-25 10:40:00 UTC,2444354.944444,27.9058,-93.7647,0580,21.1000
1980-04-25 11:00:00 UTC,2444354.958333,27.9058,-93.7647,0580,21.1000
1980-04-25 11:20:00 UTC,2444354.972222,27.9058,-93.7647,0580,21.1000
1980-04-25 11:40:00 UTC,2444354.986111,27.9058,-93.7647,0580,21.0000
1980-04-25 12:00:00 UTC,2444355.000000,27.9058,-93.7647,0580,21.0000
1980-04-25 12:20:00 UTC,2444355.013889,27.9058,-93.7647,0580,21.0000
1980-04-25 12:40:00 UTC,2444355.027778,27.9058,-93.7647,0580,20.8000
1980-04-25 13:00:00 UTC,2444355.041667,27.9058,-93.7647,0580,21.0000
1980-04-25 13:20:00 UTC,2444355.055556,27.9058,-93.7647,0580,21.0000
1980-04-25 13:40:00 UTC,2444355.069444,27.9058,-93.7647,0580,21.1000
1980-04-25 14:00:00 UTC,2444355.083333,27.9058,-93.7647,0580,21.1000
1980-04-25 14:20:00 UTC,2444355.097222,27.9058,-93.7647,0580,21.0000
1980-04-25 14:40:00 UTC,2444355.111111,27.9058,-93.7647,0580,21.1000
1980-04-25 15:00:00 UTC,2444355.125000,27.9058,-93.7647,0580,21.1000
1980-04-25 15:20:00 UTC,2444355.138889,27.9058,-93.7647,0580,21.1000
1980-04-25 15:40:00 UTC,2444355.152778,27.9058,-93.7647,0580,21.1000
1980-04-25 16:00:00 UTC,2444355.166667,27.9058,-93.7647,0580,21.1000
1980-04-25 16:20:00 UTC,2444355.180556,27.9058,-93.7647,0580,21.1000
1980-04-25 16:40:00 UTC,2444355.194444,27.9058,-93.7647,0580,21.1000
1980-04-25 17:00:00 UTC,2444355.208333,27.9058,-93.7647,0580,21.1000
1980-04-25 17:20:00 UTC,2444355.222222,27.9058,-93.7647,0580,21.1000
1980-04-25 17:40:00 UTC,2444355.236111,27.9058,-93.7647,0580,21.1000
1980-04-25 18:00:00 UTC,2444355.250000,27.9058,-93.7647,0580,21.1000
1980-04-25 18:20:00 UTC,2444355.263889,27.9058,-93.7647,0580,21.1000
1980-04-25 18:40:00 UTC,2444355.277778,27.9058,-93.7647,0580,21.1000
1980-04-25 19:00:00 UTC,2444355.291667,27.9058,-93.7647,0580,21.1000
1980-04-25 19:20:00 UTC,2444355.305556,27.9058,-93.7647,0580,21.1000
1980-04-25 19:40:00 UTC,2444355.319444,27.9058,-93.7647,0580,21.3000
1980-04-25 20:00:00 UTC,2444355.333333,27.9058,-93.7647,0580,21.3000
1980-04-25 20:20:00 UTC,2444355.347222,27.9058,-93.7647,0580,21.5000
1980-04-25 20:40:00 UTC,2444355.361111,27.9058,-93.7647,0580,21.3000
1980-04-25 21:00:00 UTC,2444355.375000,27.9058,-93.7647,0580,21.3000
1980-04-25 21:20:00 UTC,2444355.388889,27.9058,-93.7647,0580,21.3000
1980-04-25 21:40:00 UTC,2444355.402778,27.9058,-93.7647,0580,21.3000
1980-04-25 22:00:00 UTC,2444355.416667,27.9058,-93.7647,0580,21.3000
1980-04-25 22:20:00 UTC,2444355.430556,27.9058,-93.7647,0580,21.3000
1980-04-25 22:40:00 UTC,2444355.444444,27.9058,-93.7647,0580,21.3000
1980-04-25 23:00:00 UTC,2444355.458333,27.9058,-93.7647,0580,21.3000
1980-04-25 23:20:00 UTC,2444355.472222,27.9058,-93.7647,0580,21.3000
1980-04-25 23:40:00 UTC,2444355.486111,27.9058,-93.7647,0580,21.3000
1980-04-26 00:00:00 UTC,2444355.500000,27.9058,-93.7647,0580,21.3000
1980-04-26 00:20:00 UTC,2444355.513889,27.9058,-93.7647,0580,21.3000
1980-04-26 00:40:00 UTC,2444355.527778,27.9058,-93.7647,0580,21.3000
1980-04-26 01:00:00 UTC,2444355.541667,27.9058,-93.7647,0580,21.3000
1980-04-26 01:20:00 UTC,2444355.555556,27.9058,-93.7647,0580,21.3000
1980-04-26 01:40:00 UTC,2444355.569444,27.9058,-93.7647,0580,21.3000
1980-04-26 02:00:00 UTC,2444355.583333,27.9058,-93.7647,0580,21.3000
1980-04-26 02:20:00 UTC,2444355.597222,27.9058,-93.7647,0580,21.3000
1980-04-26 02:40:00 UTC,2444355.611111,27.9058,-93.7647,0580,21.3000
1980-04-26 03:00:00 UTC,2444355.625000,27.9058,-93.7647,0580,21.3000
1980-04-26 03:20:00 UTC,2444355.638889,27.9058,-93.7647,0580,21.3000
1980-04-26 03:40:00 UTC,2444355.652778,27.9058,-93.7647,0580,21.5000
1980-04-26 04:00:00 UTC,2444355.666667,27.9058,-93.7647,0580,21.6000
1980-04-26 04:20:00 UTC,2444355.680556,27.9058,-93.7647,0580,21.6000
1980-04-26 04:40:00 UTC,2444355.694444,27.9058,-93.7647,0580,21.6000
1980-04-26 05:00:00 UTC,2444355.708333,27.9058,-93.7647,0580,21.6000
1980-04-26 05:20:00 UTC,2444355.722222,27.9058,-93.7647,0580,21.6000
1980-04-26 05:40:00 UTC,2444355.736111,27.9058,-93.7647,0580,21.8000
1980-04-26 06:00:00 UTC,2444355.750000,27.9058,-93.7647,0580,21.8000
1980-04-26 06:20:00 UTC,2444355.763889,27.9058,-93.7647,0580,21.8000
1980-04-26 06:40:00 UTC,2444355.777778,27.9058,-93.7647,0580,21.8000
1980-04-26 07:00:00 UTC,2444355.791667,27.9058,-93.7647,0580,21.6000
1980-04-26 07:20:00 UTC,2444355.805556,27.9058,-93.7647,0580,21.8000
1980-04-26 07:40:00 UTC,2444355.819444,27.9058,-93.7647,0580,21.8000
1980-04-26 08:00:00 UTC,2444355.833333,27.9058,-93.7647,0580,21.8000
1980-04-26 08:20:00 UTC,2444355.847222,27.9058,-93.7647,0580,22.0000
1980-04-26 08:40:00 UTC,2444355.861111,27.9058,-93.7647,0580,21.8000
1980-04-26 09:00:00 UTC,2444355.875000,27.9058,-93.7647,0580,22.0000
1980-04-26 09:20:00 UTC,2444355.888889,27.9058,-93.7647,0580,21.8000
1980-04-26 09:40:00 UTC,2444355.902778,27.9058,-93.7647,0580,21.8000
1980-04-26 10:00:00 UTC,2444355.916667,27.9058,-93.7647,0580,21.8000
1980-04-26 10:20:00 UTC,2444355.930556,27.9058,-93.7647,0580,21.8000
1980-04-26 10:40:00 UTC,2444355.944444,27.9058,-93.7647,0580,21.8000
1980-04-26 11:00:00 UTC,2444355.958333,27.9058,-93.7647,0580,21.8000
1980-04-26 11:20:00 UTC,2444355.972222,27.9058,-93.7647,0580,21.8000
1980-04-26 11:40:00 UTC,2444355.986111,27.9058,-93.7647,0580,21.8000
1980-04-26 12:00:00 UTC,2444356.000000,27.9058,-93.7647,0580,22.0000
1980-04-26 12:20:00 UTC,2444356.013889,27.9058,-93.7647,0580,22.0000
1980-04-26 12:40:00 UTC,2444356.027778,27.9058,-93.7647,0580,21.8000
1980-04-26 13:00:00 UTC,2444356.041667,27.9058,-93.7647,0580,21.8000
1980-04-26 13:20:00 UTC,2444356.055556,27.9058,-93.7647,0580,21.8000
1980-04-26 13:40:00 UTC,2444356.069444,27.9058,-93.7647,0580,21.8000
1980-04-26 14:00:00 UTC,2444356.083333,27.9058,-93.7647,0580,21.8000
1980-04-26 14:20:00 UTC,2444356.097222,27.9058,-93.7647,0580,21.8000
1980-04-26 14:40:00 UTC,2444356.111111,27.9058,-93.7647,0580,21.6000
1980-04-26 15:00:00 UTC,2444356.125000,27.9058,-93.7647,0580,21.6000
1980-04-26 15:20:00 UTC,2444356.138889,27.9058,-93.7647,0580,21.6000
1980-04-26 15:40:00 UTC,2444356.152778,27.9058,-93.7647,0580,21.6000
1980-04-26 16:00:00 UTC,2444356.166667,27.9058,-93.7647,0580,21.6000
1980-04-26 16:20:00 UTC,2444356.180556,27.9058,-93.7647,0580,21.6000
1980-04-26 16:40:00 UTC,2444356.194444,27.9058,-93.7647,0580,21.5000
1980-04-26 17:00:00 UTC,2444356.208333,27.9058,-93.7647,0580,21.5000
1980-04-26 17:20:00 UTC,2444356.222222,27.9058,-93.7647,0580,21.6000
1980-04-26 17:40:00 UTC,2444356.236111,27.9058,-93.7647,0580,21.5000
1980-04-26 18:00:00 UTC,2444356.250000,27.9058,-93.7647,0580,21.5000
1980-04-26 18:20:00 UTC,2444356.263889,27.9058,-93.7647,0580,21.6000
1980-04-26 18:40:00 UTC,2444356.277778,27.9058,-93.7647,0580,21.6000
1980-04-26 19:00:00 UTC,2444356.291667,27.9058,-93.7647,0580,21.8000
1980-04-26 19:20:00 UTC,2444356.305556,27.9058,-93.7647,0580,22.0000
1980-04-26 19:40:00 UTC,2444356.319444,27.9058,-93.7647,0580,21.6000
1980-04-26 20:00:00 UTC,2444356.333333,27.9058,-93.7647,0580,21.8000
1980-04-26 20:20:00 UTC,2444356.347222,27.9058,-93.7647,0580,21.8000
1980-04-26 20:40:00 UTC,2444356.361111,27.9058,-93.7647,0580,21.8000
1980-04-26 21:00:00 UTC,2444356.375000,27.9058,-93.7647,0580,22.0000
1980-04-26 21:20:00 UTC,2444356.388889,27.9058,-93.7647,0580,22.0000
1980-04-26 21:40:00 UTC,2444356.402778,27.9058,-93.7647,0580,22.0000
1980-04-26 22:00:00 UTC,2444356.416667,27.9058,-93.7647,0580,22.0000
1980-04-26 22:20:00 UTC,2444356.430556,27.9058,-93.7647,0580,21.8000
1980-04-26 22:40:00 UTC,2444356.444444,27.9058,-93.7647,0580,21.8000
1980-04-26 23:00:00 UTC,2444356.458333,27.9058,-93.7647,0580,21.8000
1980-04-26 23:20:00 UTC,2444356.472222,27.9058,-93.7647,0580,21.8000
1980-04-26 23:40:00 UTC,2444356.486111,27.9058,-93.7647,0580,21.8000
1980-04-27 00:00:00 UTC,2444356.500000,27.9058,-93.7647,0580,22.1000
1980-04-27 00:20:00 UTC,2444356.513889,27.9058,-93.7647,0580,22.0000
1980-04-27 00:40:00 UTC,2444356.527778,27.9058,-93.7647,0580,22.0000
1980-04-27 01:00:00 UTC,2444356.541667,27.9058,-93.7647,0580,22.0000
1980-04-27 01:20:00 UTC,2444356.555556,27.9058,-93.7647,0580,22.0000
1980-04-27 01:40:00 UTC,2444356.569444,27.9058,-93.7647,0580,21.8000
1980-04-27 02:00:00 UTC,2444356.583333,27.9058,-93.7647,0580,21.8000
1980-04-27 02:20:00 UTC,2444356.597222,27.9058,-93.7647,0580,21.8000
1980-04-27 02:40:00 UTC,2444356.611111,27.9058,-93.7647,0580,22.0000
1980-04-27 03:00:00 UTC,2444356.625000,27.9058,-93.7647,0580,22.0000
1980-04-27 03:20:00 UTC,2444356.638889,27.9058,-93.7647,0580,22.0000
1980-04-27 03:40:00 UTC,2444356.652778,27.9058,-93.7647,0580,21.8000
1980-04-27 04:00:00 UTC,2444356.666667,27.9058,-93.7647,0580,21.8000
1980-04-27 04:20:00 UTC,2444356.680556,27.9058,-93.7647,0580,21.8000
1980-04-27 04:40:00 UTC,2444356.694444,27.9058,-93.7647,0580,21.8000
1980-04-27 05:00:00 UTC,2444356.708333,27.9058,-93.7647,0580,21.8000
1980-04-27 05:20:00 UTC,2444356.722222,27.9058,-93.7647,0580,21.8000
1980-04-27 05:40:00 UTC,2444356.736111,27.9058,-93.7647,0580,21.8000
1980-04-27 06:00:00 UTC,2444356.750000,27.9058,-93.7647,0580,21.8000
1980-04-27 06:20:00 UTC,2444356.763889,27.9058,-93.7647,0580,21.8000
1980-04-27 06:40:00 UTC,2444356.777778,27.9058,-93.7647,0580,21.8000
1980-04-27 07:00:00 UTC,2444356.791667,27.9058,-93.7647,0580,22.0000
1980-04-27 07:20:00 UTC,2444356.805556,27.9058,-93.7647,0580,21.8000
1980-04-27 07:40:00 UTC,2444356.819444,27.9058,-93.7647,0580,21.8000
1980-04-27 08:00:00 UTC,2444356.833333,27.9058,-93.7647,0580,22.0000
1980-04-27 08:20:00 UTC,2444356.847222,27.9058,-93.7647,0580,21.8000
1980-04-27 08:40:00 UTC,2444356.861111,27.9058,-93.7647,0580,21.8000
1980-04-27 09:00:00 UTC,2444356.875000,27.9058,-93.7647,0580,21.8000
1980-04-27 09:20:00 UTC,2444356.888889,27.9058,-93.7647,0580,21.8000
1980-04-27 09:40:00 UTC,2444356.902778,27.9058,-93.7647,0580,21.8000
1980-04-27 10:00:00 UTC,2444356.916667,27.9058,-93.7647,0580,21.8000
1980-04-27 10:20:00 UTC,2444356.930556,27.9058,-93.7647,0580,21.8000
1980-04-27 10:40:00 UTC,2444356.944444,27.9058,-93.7647,0580,21.8000
1980-04-27 11:00:00 UTC,2444356.958333,27.9058,-93.7647,0580,21.8000
1980-04-27 11:20:00 UTC,2444356.972222,27.9058,-93.7647,0580,21.8000
1980-04-27 11:40:00 UTC,2444356.986111,27.9058,-93.7647,0580,21.8000
1980-04-27 12:00:00 UTC,2444357.000000,27.9058,-93.7647,0580,21.8000
1980-04-27 12:20:00 UTC,2444357.013889,27.9058,-93.7647,0580,21.8000
1980-04-27 12:40:00 UTC,2444357.027778,27.9058,-93.7647,0580,21.8000
1980-04-27 13:00:00 UTC,2444357.041667,27.9058,-93.7647,0580,22.0000
1980-04-27 13:20:00 UTC,2444357.055556,27.9058,-93.7647,0580,21.8000
1980-04-27 13:40:00 UTC,2444357.069444,27.9058,-93.7647,0580,21.8000
1980-04-27 14:00:00 UTC,2444357.083333,27.9058,-93.7647,0580,21.8000
1980-04-27 14:20:00 UTC,2444357.097222,27.9058,-93.7647,0580,21.8000
1980-04-27 14:40:00 UTC,2444357.111111,27.9058,-93.7647,0580,21.8000
1980-04-27 15:00:00 UTC,2444357.125000,27.9058,-93.7647,0580,21.3000
1980-04-27 15:20:00 UTC,2444357.138889,27.9058,-93.7647,0580,21.5000
1980-04-27 15:40:00 UTC,2444357.152778,27.9058,-93.7647,0580,21.5000
1980-04-27 16:00:00 UTC,2444357.166667,27.9058,-93.7647,0580,21.5000
1980-04-27 16:20:00 UTC,2444357.180556,27.9058,-93.7647,0580,21.6000
1980-04-27 16:40:00 UTC,2444357.194444,27.9058,-93.7647,0580,21.6000
1980-04-27 17:00:00 UTC,2444357.208333,27.9058,-93.7647,0580,21.6000
1980-04-27 17:20:00 UTC,2444357.222222,27.9058,-93.7647,0580,21.6000
1980-04-27 17:40:00 UTC,2444357.236111,27.9058,-93.7647,0580,21.6000
1980-04-27 18:00:00 UTC,2444357.250000,27.9058,-93.7647,0580,21.6000
1980-04-27 18:20:00 UTC,2444357.263889,27.9058,-93.7647,0580,21.6000
1980-04-27 18:40:00 UTC,2444357.277778,27.9058,-93.7647,0580,21.6000
1980-04-27 19:00:00 UTC,2444357.291667,27.9058,-93.7647,0580,21.6000
1980-04-27 19:20:00 UTC,2444357.305556,27.9058,-93.7647,0580,21.5000
1980-04-27 19:40:00 UTC,2444357.319444,27.9058,-93.7647,0580,21.5000
1980-04-27 20:00:00 UTC,2444357.333333,27.9058,-93.7647,0580,21.3000
1980-04-27 20:20:00 UTC,2444357.347222,27.9058,-93.7647,0580,21.5000
1980-04-27 20:40:00 UTC,2444357.361111,27.9058,-93.7647,0580,21.5000
1980-04-27 21:00:00 UTC,2444357.375000,27.9058,-93.7647,0580,21.3000
1980-04-27 21:20:00 UTC,2444357.388889,27.9058,-93.7647,0580,21.3000
1980-04-27 21:40:00 UTC,2444357.402778,27.9058,-93.7647,0580,21.3000
1980-04-27 22:00:00 UTC,2444357.416667,27.9058,-93.7647,0580,21.3000
1980-04-27 22:20:00 UTC,2444357.430556,27.9058,-93.7647,0580,21.3000
1980-04-27 22:40:00 UTC,2444357.444444,27.9058,-93.7647,0580,21.3000
1980-04-27 23:00:00 UTC,2444357.458333,27.9058,-93.7647,0580,21.3000
1980-04-27 23:20:00 UTC,2444357.472222,27.9058,-93.7647,0580,21.3000
1980-04-27 23:40:00 UTC,2444357.486111,27.9058,-93.7647,0580,21.3000
1980-04-28 00:00:00 UTC,2444357.500000,27.9058,-93.7647,0580,21.3000
1980-04-28 00:20:00 UTC,2444357.513889,27.9058,-93.7647,0580,21.5000
1980-04-28 00:40:00 UTC,2444357.527778,27.9058,-93.7647,0580,21.5000
1980-04-28 01:00:00 UTC,2444357.541667,27.9058,-93.7647,0580,21.5000
1980-04-28 01:20:00 UTC,2444357.555556,27.9058,-93.7647,0580,21.6000
1980-04-28 01:40:00 UTC,2444357.569444,27.9058,-93.7647,0580,21.6000
1980-04-28 02:00:00 UTC,2444357.583333,27.9058,-93.7647,0580,21.6000
1980-04-28 02:20:00 UTC,2444357.597222,27.9058,-93.7647,0580,21.6000
1980-04-28 02:40:00 UTC,2444357.611111,27.9058,-93.7647,0580,21.6000
1980-04-28 03:00:00 UTC,2444357.625000,27.9058,-93.7647,0580,21.6000
1980-04-28 03:20:00 UTC,2444357.638889,27.9058,-93.7647,0580,21.6000
1980-04-28 03:40:00 UTC,2444357.652778,27.9058,-93.7647,0580,21.5000
1980-04-28 04:00:00 UTC,2444357.666667,27.9058,-93.7647,0580,21.3000
1980-04-28 04:20:00 UTC,2444357.680556,27.9058,-93.7647,0580,21.3000
1980-04-28 04:40:00 UTC,2444357.694444,27.9058,-93.7647,0580,21.3000
1980-04-28 05:00:00 UTC,2444357.708333,27.9058,-93.7647,0580,21.3000
1980-04-28 05:20:00 UTC,2444357.722222,27.9058,-93.7647,0580,21.3000
1980-04-28 05:40:00 UTC,2444357.736111,27.9058,-93.7647,0580,21.3000
1980-04-28 06:00:00 UTC,2444357.750000,27.9058,-93.7647,0580,21.3000
1980-04-28 06:20:00 UTC,2444357.763889,27.9058,-93.7647,0580,21.3000
1980-04-28 06:40:00 UTC,2444357.777778,27.9058,-93.7647,0580,21.3000
1980-04-28 07:00:00 UTC,2444357.791667,27.9058,-93.7647,0580,21.3000
1980-04-28 07:20:00 UTC,2444357.805556,27.9058,-93.7647,0580,21.3000
1980-04-28 07:40:00 UTC,2444357.819444,27.9058,-93.7647,0580,21.3000
1980-04-28 08:00:00 UTC,2444357.833333,27.9058,-93.7647,0580,21.3000
1980-04-28 08:20:00 UTC,2444357.847222,27.9058,-93.7647,0580,21.3000
1980-04-28 08:40:00 UTC,2444357.861111,27.9058,-93.7647,0580,21.3000
1980-04-28 09:00:00 UTC,2444357.875000,27.9058,-93.7647,0580,21.3000
1980-04-28 09:20:00 UTC,2444357.888889,27.9058,-93.7647,0580,21.3000
1980-04-28 09:40:00 UTC,2444357.902778,27.9058,-93.7647,0580,21.3000
1980-04-28 10:00:00 UTC,2444357.916667,27.9058,-93.7647,0580,21.5000
1980-04-28 10:20:00 UTC,2444357.930556,27.9058,-93.7647,0580,21.5000
1980-04-28 10:40:00 UTC,2444357.944444,27.9058,-93.7647,0580,21.3000